Time,TemperatureF,DewpointF,PressureIn,WindDirection,WindDirectionDegrees,WindSpeedMPH,WindSpeedGustMPH,Humidity,HourlyPrecipIn,Conditions,Clouds,dailyrainin,SoftwareType,DateUTC
2013-07-16 00:01:00,70.6,67.1,30.09,South,183,0.7,1.3,89,0.00,,,0.00,WUHU216HW,2013-07-16 05:01:00,
2013-07-16 00:06:00,70.6,67.1,30.09,SSW,203,0.3,1.3,89,0.00,,,0.00,WUHU216HW,2013-07-16 05:06:00,
2013-07-16 00:11:00,70.6,67.5,30.09,SSW,203,0.3,0.7,90,0.00,,,0.00,WUHU216HW,2013-07-16 05:11:00,
2013-07-16 00:16:00,70.6,67.5,30.09,SSE,158,1.8,2.0,90,0.00,,,0.00,WUHU216HW,2013-07-16 05:16:00,
2013-07-16 00:21:00,70.6,67.5,30.10,South,180,1.1,2.0,90,0.00,,,0.00,WUHU216HW,2013-07-16 05:21:00,
2013-07-16 00:26:00,70.4,67.3,30.09,South,180,0.8,1.1,90,0.00,,,0.00,WUHU216HW,2013-07-16 05:26:00,
2013-07-16 00:31:00,70.4,67.3,30.10,SSW,203,0.2,1.1,90,0.00,,,0.00,WUHU216HW,2013-07-16 05:31:00,
2013-07-16 00:36:00,70.2,67.1,30.10,SSW,203,0.2,0.7,90,0.00,,,0.00,WUHU216HW,2013-07-16 05:36:00,
2013-07-16 00:41:00,70.2,67.1,30.09,SSE,158,1.3,1.3,90,0.00,,,0.00,WUHU216HW,2013-07-16 05:41:00,
2013-07-16 00:46:00,70.2,67.1,30.09,South,190,1.0,1.8,90,0.00,,,0.00,WUHU216HW,2013-07-16 05:46:00,
2013-07-16 00:51:00,70.2,67.1,30.09,South,186,0.8,1.8,90,0.00,,,0.00,WUHU216HW,2013-07-16 05:51:00,
2013-07-16 00:56:00,70.2,67.1,30.09,SSE,158,2.0,2.0,90,0.00,,,0.00,WUHU216HW,2013-07-16 05:56:00,
2013-07-16 01:01:00,70.2,67.1,30.09,South,180,1.8,2.0,90,0.00,,,0.00,WUHU216HW,2013-07-16 06:01:00,
2013-07-16 01:06:00,70.2,67.1,30.09,South,180,0.8,3.1,90,0.00,,,0.00,WUHU216HW,2013-07-16 06:06:00,
2013-07-16 01:11:00,70.2,67.1,30.09,South,180,1.6,3.1,90,0.00,,,0.00,WUHU216HW,2013-07-16 06:11:00,
2013-07-16 01:16:00,70.2,67.1,30.09,South,180,0.7,2.5,90,0.00,,,0.00,WUHU216HW,2013-07-16 06:16:00,
2013-07-16 01:21:00,70.2,67.1,30.09,SW,225,0.4,2.0,90,0.00,,,0.00,WUHU216HW,2013-07-16 06:21:00,
2013-07-16 01:26:00,70.2,67.1,30.09,SSW,203,0.4,2.0,90,0.00,,,0.00,WUHU216HW,2013-07-16 06:26:00,
2013-07-16 01:31:00,70.2,67.1,30.09,SW,225,0.2,0.4,90,0.00,,,0.00,WUHU216HW,2013-07-16 06:31:00,
2013-07-16 01:36:00,70.2,67.1,30.09,SW,225,0.0,0.4,90,0.00,,,0.00,WUHU216HW,2013-07-16 06:36:00,
2013-07-16 01:41:00,70.0,67.0,30.09,SW,225,0.0,0.0,90,0.00,,,0.00,WUHU216HW,2013-07-16 06:41:00,
2013-07-16 01:46:00,70.0,67.0,30.09,SW,225,0.0,0.0,90,0.00,,,0.00,WUHU216HW,2013-07-16 06:46:00,
2013-07-16 01:51:00,69.8,67.1,30.09,SW,225,0.0,0.0,91,0.00,,,0.00,WUHU216HW,2013-07-16 06:51:00,
2013-07-16 01:56:00,69.8,67.1,30.09,SSW,203,0.0,0.4,91,0.00,,,0.00,WUHU216HW,2013-07-16 06:56:00,
2013-07-16 02:01:00,69.8,67.1,30.09,SSW,203,0.0,0.4,91,0.00,,,0.00,WUHU216HW,2013-07-16 07:01:00,
2013-07-16 02:06:00,69.8,67.1,30.09,SSW,203,0.0,0.0,91,0.00,,,0.00,WUHU216HW,2013-07-16 07:06:00,
2013-07-16 02:11:00,69.8,67.1,30.10,SSW,203,0.0,0.0,91,0.00,,,0.00,WUHU216HW,2013-07-16 07:11:00,
2013-07-16 02:16:00,69.8,67.1,30.10,SSW,203,0.0,0.0,91,0.00,,,0.00,WUHU216HW,2013-07-16 07:16:00,
2013-07-16 02:21:00,69.7,66.9,30.10,SSW,203,0.0,0.0,91,0.00,,,0.00,WUHU216HW,2013-07-16 07:21:00,
2013-07-16 02:26:00,69.7,66.9,30.10,SSW,203,0.0,0.0,91,0.00,,,0.00,WUHU216HW,2013-07-16 07:26:00,
2013-07-16 02:31:00,69.7,66.9,30.10,SSW,203,0.0,0.0,91,0.00,,,0.00,WUHU216HW,2013-07-16 07:31:00,
2013-07-16 02:36:00,69.5,66.7,30.10,SSW,203,0.0,0.0,91,0.00,,,0.00,WUHU216HW,2013-07-16 07:36:00,
2013-07-16 02:41:00,69.5,66.7,30.10,SSW,203,0.0,0.0,91,0.00,,,0.00,WUHU216HW,2013-07-16 07:41:00,
2013-07-16 02:46:00,69.5,66.7,30.10,SSW,203,0.0,0.0,91,0.00,,,0.00,WUHU216HW,2013-07-16 07:46:00,
2013-07-16 02:51:00,69.5,66.7,30.10,SSW,203,0.0,0.0,91,0.00,,,0.00,WUHU216HW,2013-07-16 07:51:00,
2013-07-16 02:56:00,69.5,66.7,30.09,SSW,203,0.0,0.0,91,0.00,,,0.00,WUHU216HW,2013-07-16 07:56:00,
2013-07-16 03:01:00,69.5,66.7,30.10,SSW,203,0.3,0.4,91,0.00,,,0.00,WUHU216HW,2013-07-16 08:01:00,
2013-07-16 03:06:00,69.7,66.9,30.09,SSW,203,0.8,1.1,91,0.00,,,0.00,WUHU216HW,2013-07-16 08:06:00,
2013-07-16 03:11:00,69.7,66.9,30.10,SSW,203,0.0,1.1,91,0.00,,,0.00,WUHU216HW,2013-07-16 08:11:00,
2013-07-16 03:16:00,69.7,66.9,30.10,South,180,0.0,0.4,91,0.00,,,0.00,WUHU216HW,2013-07-16 08:16:00,
2013-07-16 03:21:00,69.7,66.9,30.09,South,180,0.0,0.4,91,0.00,,,0.00,WUHU216HW,2013-07-16 08:21:00,
2013-07-16 03:26:00,69.7,66.9,30.10,South,180,0.0,0.2,91,0.00,,,0.00,WUHU216HW,2013-07-16 08:26:00,
2013-07-16 03:31:00,69.8,67.1,30.10,South,180,0.0,0.0,91,0.00,,,0.00,WUHU216HW,2013-07-16 08:31:00,
2013-07-16 03:36:00,69.8,67.1,30.10,South,180,0.1,0.4,91,0.00,,,0.00,WUHU216HW,2013-07-16 08:36:00,
2013-07-16 03:41:00,69.8,67.1,30.10,South,180,0.0,0.4,91,0.00,,,0.00,WUHU216HW,2013-07-16 08:41:00,
2013-07-16 03:46:00,69.8,67.1,30.10,South,180,0.0,0.0,91,0.00,,,0.00,WUHU216HW,2013-07-16 08:46:00,
2013-07-16 03:51:00,69.7,66.9,30.10,South,180,0.0,0.0,91,0.00,,,0.00,WUHU216HW,2013-07-16 08:51:00,
2013-07-16 03:56:00,69.7,66.9,30.10,SE,135,1.1,1.1,91,0.00,,,0.00,WUHU216HW,2013-07-16 08:56:00,
2013-07-16 04:01:00,69.7,66.9,30.10,SE,135,0.3,1.1,91,0.00,,,0.00,WUHU216HW,2013-07-16 09:01:00,
2013-07-16 04:06:00,69.7,66.9,30.10,SE,135,0.0,1.1,91,0.00,,,0.00,WUHU216HW,2013-07-16 09:06:00,
2013-07-16 04:11:00,69.7,66.9,30.10,SE,135,0.0,0.4,91,0.00,,,0.00,WUHU216HW,2013-07-16 09:11:00,
2013-07-16 04:16:00,69.7,66.9,30.11,SE,135,0.0,0.4,91,0.00,,,0.00,WUHU216HW,2013-07-16 09:16:00,
2013-07-16 04:21:00,69.7,66.9,30.11,South,180,0.0,0.0,91,0.00,,,0.00,WUHU216HW,2013-07-16 09:21:00,
2013-07-16 04:26:00,69.8,67.1,30.11,South,180,0.4,0.4,91,0.00,,,0.00,WUHU216HW,2013-07-16 09:26:00,
2013-07-16 04:31:00,69.8,67.1,30.10,South,180,0.2,0.4,91,0.00,,,0.00,WUHU216HW,2013-07-16 09:31:00,
2013-07-16 04:36:00,69.8,67.1,30.10,South,180,0.0,0.4,91,0.00,,,0.00,WUHU216HW,2013-07-16 09:36:00,
2013-07-16 04:41:00,69.8,67.1,30.10,South,180,0.4,0.4,91,0.00,,,0.00,WUHU216HW,2013-07-16 09:41:00,
2013-07-16 04:46:00,69.8,67.1,30.11,SSE,158,0.2,0.4,91,0.00,,,0.00,WUHU216HW,2013-07-16 09:46:00,
2013-07-16 04:51:00,69.7,66.9,30.11,SSE,158,0.0,0.7,91,0.00,,,0.00,WUHU216HW,2013-07-16 09:51:00,
2013-07-16 04:56:00,69.7,67.2,30.11,SSW,203,0.0,0.7,92,0.00,,,0.00,WUHU216HW,2013-07-16 09:56:00,
2013-07-16 05:01:00,69.8,67.4,30.11,SW,225,0.4,0.4,92,0.00,,,0.00,WUHU216HW,2013-07-16 10:01:00,
2013-07-16 05:06:00,69.8,67.4,30.11,SW,225,0.0,0.4,92,0.00,,,0.00,WUHU216HW,2013-07-16 10:06:00,
2013-07-16 05:11:00,69.7,67.2,30.11,SW,225,0.0,0.2,92,0.00,,,0.00,WUHU216HW,2013-07-16 10:11:00,
2013-07-16 05:16:00,69.7,67.2,30.11,SW,225,0.0,0.0,92,0.00,,,0.00,WUHU216HW,2013-07-16 10:16:00,
2013-07-16 05:21:00,69.5,67.1,30.11,SW,225,0.0,0.0,92,0.00,,,0.00,WUHU216HW,2013-07-16 10:21:00,
2013-07-16 05:26:00,69.5,67.1,30.11,South,180,0.3,0.4,92,0.00,,,0.00,WUHU216HW,2013-07-16 10:26:00,
2013-07-16 05:31:00,69.5,67.1,30.11,SSE,158,0.6,0.7,92,0.00,,,0.00,WUHU216HW,2013-07-16 10:31:00,
2013-07-16 05:36:00,69.5,67.1,30.11,SSE,158,0.2,0.7,92,0.00,,,0.00,WUHU216HW,2013-07-16 10:36:00,
2013-07-16 05:41:00,69.5,67.1,30.11,SSE,158,0.2,0.9,92,0.00,,,0.00,WUHU216HW,2013-07-16 10:41:00,
2013-07-16 05:46:00,69.5,67.1,30.11,SSE,158,0.7,1.1,92,0.00,,,0.00,WUHU216HW,2013-07-16 10:46:00,
2013-07-16 05:51:00,69.5,67.1,30.12,South,180,0.4,1.1,92,0.00,,,0.00,WUHU216HW,2013-07-16 10:51:00,
2013-07-16 05:56:00,69.5,67.1,30.12,South,180,0.0,0.7,92,0.00,,,0.00,WUHU216HW,2013-07-16 10:56:00,
2013-07-16 06:01:00,69.5,67.1,30.12,South,180,0.0,0.0,92,0.00,,,0.00,WUHU216HW,2013-07-16 11:01:00,
2013-07-16 06:06:00,69.5,67.1,30.12,South,180,0.0,0.2,92,0.00,,,0.00,WUHU216HW,2013-07-16 11:06:00,
2013-07-16 06:11:00,69.5,67.1,30.13,South,180,0.3,0.4,92,0.00,,,0.00,WUHU216HW,2013-07-16 11:11:00,
2013-07-16 06:16:00,69.5,67.1,30.13,SSE,158,0.4,0.9,92,0.00,,,0.00,WUHU216HW,2013-07-16 11:16:00,
2013-07-16 06:21:00,69.5,67.1,30.13,SSE,158,0.4,0.9,92,0.00,,,0.00,WUHU216HW,2013-07-16 11:21:00,
2013-07-16 06:26:00,69.5,67.1,30.13,SSE,158,0.9,0.9,92,0.00,,,0.00,WUHU216HW,2013-07-16 11:26:00,
2013-07-16 06:31:00,69.7,67.2,30.13,SSE,158,1.6,1.6,92,0.00,,,0.00,WUHU216HW,2013-07-16 11:31:00,
2013-07-16 06:36:00,69.7,67.2,30.13,SSE,158,1.3,1.6,92,0.00,,,0.00,WUHU216HW,2013-07-16 11:36:00,
2013-07-16 06:41:00,69.8,67.4,30.14,SSE,158,0.4,1.8,92,0.00,,,0.00,WUHU216HW,2013-07-16 11:41:00,
2013-07-16 06:46:00,69.8,67.4,30.14,SSE,158,0.8,1.8,92,0.00,,,0.00,WUHU216HW,2013-07-16 11:46:00,
2013-07-16 06:51:00,70.0,67.6,30.13,SSE,158,1.1,1.3,92,0.00,,,0.00,WUHU216HW,2013-07-16 11:51:00,
2013-07-16 06:56:00,70.2,67.8,30.14,SE,145,0.8,1.3,92,0.00,,,0.00,WUHU216HW,2013-07-16 11:56:00,
2013-07-16 07:01:00,70.4,68.0,30.14,SSE,158,0.9,1.3,92,0.00,,,0.00,WUHU216HW,2013-07-16 12:01:00,
2013-07-16 07:06:00,70.6,68.1,30.14,SSE,158,1.3,2.2,92,0.00,,,0.00,WUHU216HW,2013-07-16 12:06:00,
2013-07-16 07:11:00,70.6,68.1,30.14,SSE,158,0.4,2.2,92,0.00,,,0.00,WUHU216HW,2013-07-16 12:11:00,
2013-07-16 07:16:00,70.7,68.3,30.14,South,180,0.7,1.3,92,0.00,,,0.00,WUHU216HW,2013-07-16 12:16:00,
2013-07-16 07:21:00,70.9,68.5,30.14,SSE,158,1.3,1.3,92,0.00,,,0.00,WUHU216HW,2013-07-16 12:21:00,
2013-07-16 07:26:00,71.1,68.7,30.14,SSE,158,1.3,1.3,92,0.00,,,0.00,WUHU216HW,2013-07-16 12:26:00,
2013-07-16 07:31:00,71.3,68.9,30.14,SSE,158,0.9,2.0,92,0.00,,,0.00,WUHU216HW,2013-07-16 12:31:00,
2013-07-16 07:36:00,71.5,69.0,30.15,SSE,149,1.5,2.0,92,0.00,,,0.00,WUHU216HW,2013-07-16 12:36:00,
2013-07-16 07:41:00,71.6,69.2,30.14,SSE,158,0.8,1.8,92,0.00,,,0.00,WUHU216HW,2013-07-16 12:41:00,
2013-07-16 07:46:00,71.8,69.4,30.15,SSW,203,1.1,1.3,92,0.00,,,0.00,WUHU216HW,2013-07-16 12:46:00,
2013-07-16 07:51:00,72.0,69.6,30.15,South,180,0.4,1.1,92,0.00,,,0.00,WUHU216HW,2013-07-16 12:51:00,
2013-07-16 07:56:00,72.2,70.0,30.15,South,180,0.7,1.1,93,0.00,,,0.00,WUHU216HW,2013-07-16 12:56:00,
2013-07-16 08:01:00,72.4,69.9,30.15,South,187,0.3,1.1,92,0.00,,,0.00,WUHU216HW,2013-07-16 13:01:00,
2013-07-16 08:06:00,72.7,70.3,30.15,NNW,338,0.2,1.1,92,0.00,,,0.00,WUHU216HW,2013-07-16 13:06:00,
2013-07-16 08:11:00,73.1,70.7,30.15,West,270,0.4,1.1,92,0.00,,,0.00,WUHU216HW,2013-07-16 13:11:00,
2013-07-16 08:16:00,73.4,71.3,30.16,WSW,248,0.2,1.1,93,0.00,,,0.00,WUHU216HW,2013-07-16 13:16:00,
2013-07-16 08:21:00,73.8,72.0,30.16,SSE,158,0.4,1.3,94,0.00,,,0.00,WUHU216HW,2013-07-16 13:21:00,
2013-07-16 08:26:00,74.2,72.0,30.16,SSW,211,0.6,1.8,93,0.00,,,0.00,WUHU216HW,2013-07-16 13:26:00,
2013-07-16 08:31:00,74.3,72.2,30.16,West,270,1.0,1.8,93,0.01,,,0.01,WUHU216HW,2013-07-16 13:31:00,
2013-07-16 08:36:00,74.7,72.5,30.16,SSW,204,1.2,1.3,93,0.01,,,0.01,WUHU216HW,2013-07-16 13:36:00,
2013-07-16 08:41:00,75.1,72.9,30.17,SSW,209,0.4,2.5,93,0.01,,,0.01,WUHU216HW,2013-07-16 13:41:00,
2013-07-16 08:46:00,75.4,73.3,30.17,WSW,248,0.1,2.5,93,0.01,,,0.01,WUHU216HW,2013-07-16 13:46:00,
2013-07-16 08:51:00,76.0,73.8,30.17,ESE,113,1.0,1.8,93,0.01,,,0.01,WUHU216HW,2013-07-16 13:51:00,
2013-07-16 08:56:00,76.3,74.2,30.17,West,270,0.7,1.8,93,0.01,,,0.01,WUHU216HW,2013-07-16 13:56:00,
2013-07-16 09:01:00,76.7,74.3,30.17,West,270,0.7,1.3,92,0.01,,,0.01,WUHU216HW,2013-07-16 14:01:00,
2013-07-16 09:06:00,77.0,74.6,30.17,ESE,113,1.1,1.3,92,0.01,,,0.01,WUHU216HW,2013-07-16 14:06:00,
2013-07-16 09:11:00,77.4,75.0,30.17,SW,225,0.9,1.3,92,0.01,,,0.01,WUHU216HW,2013-07-16 14:11:00,
2013-07-16 09:16:00,77.8,75.0,30.17,SW,225,0.8,1.3,91,0.01,,,0.01,WUHU216HW,2013-07-16 14:16:00,
2013-07-16 09:21:00,78.1,75.3,30.17,ESE,113,1.1,1.6,91,0.01,,,0.01,WUHU216HW,2013-07-16 14:21:00,
2013-07-16 09:26:00,78.5,75.7,30.17,WSW,248,0.4,1.6,91,0.01,,,0.01,WUHU216HW,2013-07-16 14:26:00,
2013-07-16 09:31:00,79.0,76.0,30.17,ESE,113,0.4,1.8,90,0.00,,,0.01,WUHU216HW,2013-07-16 14:31:00,
2013-07-16 09:36:00,79.2,75.8,30.17,South,182,1.0,2.0,89,0.00,,,0.01,WUHU216HW,2013-07-16 14:36:00,
2013-07-16 09:41:00,79.6,76.1,30.17,ESE,113,2.0,2.0,89,0.00,,,0.01,WUHU216HW,2013-07-16 14:41:00,
2013-07-16 09:46:00,79.9,76.4,30.17,SSE,158,0.2,2.0,89,0.00,,,0.01,WUHU216HW,2013-07-16 14:46:00,
2013-07-16 09:51:00,80.5,76.6,30.17,East,90,2.0,2.0,88,0.00,,,0.01,WUHU216HW,2013-07-16 14:51:00,
2013-07-16 09:56:00,80.6,76.7,30.17,ESE,113,0.6,2.0,88,0.00,,,0.01,WUHU216HW,2013-07-16 14:56:00,
2013-07-16 10:01:00,80.8,76.6,30.17,ESE,113,0.9,2.0,87,0.00,,,0.01,WUHU216HW,2013-07-16 15:01:00,
2013-07-16 10:06:00,81.0,76.4,30.17,SW,225,1.8,2.0,86,0.00,,,0.01,WUHU216HW,2013-07-16 15:06:00,
2013-07-16 10:11:00,81.0,75.7,30.17,SW,225,2.3,3.4,84,0.00,,,0.01,WUHU216HW,2013-07-16 15:11:00,
2013-07-16 10:16:00,81.2,77.0,30.17,SSE,158,0.9,3.4,87,0.00,,,0.01,WUHU216HW,2013-07-16 15:16:00,
2013-07-16 10:21:00,81.7,77.5,30.17,South,175,2.0,3.1,87,0.00,,,0.01,WUHU216HW,2013-07-16 15:21:00,
2013-07-16 10:26:00,81.9,77.3,30.17,ESE,113,0.8,3.1,86,0.00,,,0.01,WUHU216HW,2013-07-16 15:26:00,
2013-07-16 10:31:00,82.4,77.9,30.17,ESE,113,1.1,2.5,86,0.00,,,0.01,WUHU216HW,2013-07-16 15:31:00,
2013-07-16 10:36:00,83.0,78.0,30.18,ESE,113,3.1,3.1,85,0.00,,,0.01,WUHU216HW,2013-07-16 15:36:00,
2013-07-16 10:41:00,83.3,78.0,30.18,ESE,113,1.6,3.1,84,0.00,,,0.01,WUHU216HW,2013-07-16 15:41:00,
2013-07-16 10:46:00,83.9,78.1,30.18,SE,135,2.9,2.9,83,0.00,,,0.01,WUHU216HW,2013-07-16 15:46:00,
2013-07-16 10:51:00,84.2,78.1,30.18,SE,135,2.5,2.9,82,0.00,,,0.01,WUHU216HW,2013-07-16 15:51:00,
2013-07-16 10:56:00,84.4,78.3,30.18,South,180,1.1,4.0,82,0.00,,,0.01,WUHU216HW,2013-07-16 15:56:00,
2013-07-16 11:01:00,84.6,78.1,30.18,SE,139,1.8,4.0,81,0.00,,,0.01,WUHU216HW,2013-07-16 16:01:00,
2013-07-16 11:06:00,84.6,78.1,30.18,South,180,2.0,2.5,81,0.00,,,0.01,WUHU216HW,2013-07-16 16:06:00,
2013-07-16 11:11:00,84.6,77.8,30.18,SSE,147,1.9,2.5,80,0.00,,,0.01,WUHU216HW,2013-07-16 16:11:00,
2013-07-16 11:16:00,84.8,77.6,30.18,ESE,113,1.5,2.5,79,0.00,,,0.01,WUHU216HW,2013-07-16 16:16:00,
2013-07-16 11:21:00,84.4,77.2,30.18,SSW,203,1.3,2.0,79,0.00,,,0.01,WUHU216HW,2013-07-16 16:21:00,
2013-07-16 11:26:00,84.1,76.9,30.18,SW,225,1.1,1.6,79,0.00,,,0.01,WUHU216HW,2013-07-16 16:26:00,
2013-07-16 11:31:00,84.1,76.9,30.18,SE,135,1.6,2.9,79,0.00,,,0.01,WUHU216HW,2013-07-16 16:31:00,
2013-07-16 11:36:00,84.6,77.4,30.18,SE,135,1.7,2.9,79,0.00,,,0.01,WUHU216HW,2013-07-16 16:36:00,
2013-07-16 11:41:00,84.6,76.6,30.18,WSW,248,1.1,2.9,77,0.00,,,0.01,WUHU216HW,2013-07-16 16:41:00,
2013-07-16 11:46:00,84.4,76.0,30.18,SW,225,1.1,2.7,76,0.00,,,0.01,WUHU216HW,2013-07-16 16:46:00,
2013-07-16 11:51:00,84.2,75.8,30.18,SW,225,1.4,3.4,76,0.00,,,0.01,WUHU216HW,2013-07-16 16:51:00,
2013-07-16 11:56:00,84.4,76.8,30.18,ESE,113,0.7,3.4,78,0.00,,,0.01,WUHU216HW,2013-07-16 16:56:00,
2013-07-16 12:01:00,85.0,77.3,30.18,ESE,113,1.8,2.2,78,0.00,,,0.01,WUHU216HW,2013-07-16 17:01:00,
2013-07-16 12:06:00,85.9,77.4,30.18,SW,225,2.5,2.5,76,0.00,,,0.01,WUHU216HW,2013-07-16 17:06:00,
2013-07-16 12:11:00,86.0,76.4,30.17,SW,225,2.0,2.5,73,0.00,,,0.01,WUHU216HW,2013-07-16 17:11:00,
2013-07-16 12:16:00,86.0,77.2,30.17,SSE,158,1.3,2.0,75,0.00,,,0.01,WUHU216HW,2013-07-16 17:16:00,
2013-07-16 12:21:00,86.6,78.1,30.17,ESE,117,1.1,1.3,76,0.00,,,0.01,WUHU216HW,2013-07-16 17:21:00,
2013-07-16 12:26:00,87.1,76.2,30.17,North,0,1.8,2.5,70,0.00,,,0.01,WUHU216HW,2013-07-16 17:26:00,
2013-07-16 12:31:00,86.8,76.3,30.17,SSE,155,1.3,2.5,71,0.00,,,0.01,WUHU216HW,2013-07-16 17:31:00,
2013-07-16 12:36:00,86.9,78.0,30.17,WNW,293,1.8,2.0,75,0.00,,,0.01,WUHU216HW,2013-07-16 17:36:00,
2013-07-16 12:41:00,86.8,75.0,30.16,SSW,203,4.0,4.0,68,0.00,,,0.01,WUHU216HW,2013-07-16 17:41:00,
2013-07-16 12:46:00,87.1,76.6,30.16,SE,135,2.9,4.0,71,0.00,,,0.01,WUHU216HW,2013-07-16 17:46:00,
2013-07-16 12:51:00,87.3,76.8,30.16,NNW,332,1.5,2.9,71,0.00,,,0.01,WUHU216HW,2013-07-16 17:51:00,
2013-07-16 12:56:00,86.8,76.7,30.16,SW,225,1.3,2.2,72,0.00,,,0.01,WUHU216HW,2013-07-16 17:56:00,
2013-07-16 13:01:00,86.4,75.1,30.16,SW,225,4.3,4.3,69,0.00,,,0.01,WUHU216HW,2013-07-16 18:01:00,
2013-07-16 13:06:00,86.8,74.5,30.16,SW,225,3.6,4.3,67,0.00,,,0.01,WUHU216HW,2013-07-16 18:06:00,
2013-07-16 13:11:00,87.3,77.2,30.15,SE,145,0.8,3.6,72,0.00,,,0.01,WUHU216HW,2013-07-16 18:11:00,
2013-07-16 13:16:00,87.5,77.0,30.16,NE,45,1.0,3.4,71,0.00,,,0.01,WUHU216HW,2013-07-16 18:16:00,
2013-07-16 13:21:00,87.1,76.2,30.15,SSE,153,1.4,2.5,70,0.00,,,0.01,WUHU216HW,2013-07-16 18:21:00,
2013-07-16 13:26:00,86.9,74.7,30.15,SW,222,1.3,4.0,67,0.00,,,0.01,WUHU216HW,2013-07-16 18:26:00,
2013-07-16 13:31:00,87.1,75.3,30.15,West,270,1.8,4.0,68,0.00,,,0.01,WUHU216HW,2013-07-16 18:31:00,
2013-07-16 13:36:00,87.5,75.2,30.15,SE,135,2.0,2.0,67,0.00,,,0.01,WUHU216HW,2013-07-16 18:36:00,
2013-07-16 13:41:00,87.8,76.4,30.14,SSW,203,1.3,2.0,69,0.00,,,0.01,WUHU216HW,2013-07-16 18:41:00,
2013-07-16 13:46:00,87.8,75.5,30.14,SSW,203,1.6,2.2,67,0.00,,,0.01,WUHU216HW,2013-07-16 18:46:00,
2013-07-16 13:51:00,88.0,74.8,30.14,SSE,165,1.7,3.6,65,0.00,,,0.01,WUHU216HW,2013-07-16 18:51:00,
2013-07-16 13:56:00,88.2,75.0,30.14,North,0,2.7,3.6,65,0.00,,,0.01,WUHU216HW,2013-07-16 18:56:00,
2013-07-16 14:01:00,88.4,76.1,30.13,North,0,1.3,3.4,67,0.00,,,0.01,WUHU216HW,2013-07-16 19:01:00,
2013-07-16 14:07:00,88.6,73.9,30.14,ESE,113,1.3,2.5,62,0.00,,,0.01,WUHU216HW,2013-07-16 19:07:00,
2013-07-16 14:12:00,88.7,75.4,30.13,North,0,1.8,2.2,65,0.00,,,0.01,WUHU216HW,2013-07-16 19:12:00,
2013-07-16 14:17:00,88.6,75.8,30.13,North,0,2.7,2.9,66,0.00,,,0.01,WUHU216HW,2013-07-16 19:17:00,
2013-07-16 14:22:00,88.7,75.4,30.13,North,0,1.8,2.9,65,0.00,,,0.01,WUHU216HW,2013-07-16 19:22:00,
2013-07-16 14:27:00,88.7,73.6,30.13,SE,136,3.0,3.1,61,0.00,,,0.01,WUHU216HW,2013-07-16 19:27:00,
2013-07-16 14:32:00,88.9,75.2,30.13,North,0,2.9,3.1,64,0.00,,,0.01,WUHU216HW,2013-07-16 19:32:00,
2013-07-16 14:37:00,88.6,71.9,30.13,ESE,113,2.7,2.9,58,0.00,,,0.01,WUHU216HW,2013-07-16 19:37:00,
2013-07-16 14:42:00,88.6,73.0,30.12,WSW,248,0.8,2.7,60,0.00,,,0.01,WUHU216HW,2013-07-16 19:42:00,
2013-07-16 14:47:00,88.7,74.1,30.12,North,0,1.1,3.1,62,0.00,,,0.01,WUHU216HW,2013-07-16 19:47:00,
2013-07-16 14:52:00,88.7,73.2,30.12,North,0,0.4,3.1,60,0.00,,,0.01,WUHU216HW,2013-07-16 19:52:00,
2013-07-16 14:57:00,88.9,74.7,30.11,NNW,338,1.1,1.8,63,0.00,,,0.01,WUHU216HW,2013-07-16 19:57:00,
2013-07-16 15:02:00,89.3,74.2,30.11,SE,139,1.9,2.2,61,0.00,,,0.01,WUHU216HW,2013-07-16 20:02:00,
2013-07-16 15:07:00,89.1,74.0,30.11,ESE,113,3.6,3.6,61,0.00,,,0.01,WUHU216HW,2013-07-16 20:07:00,
2013-07-16 15:12:00,88.6,73.9,30.11,SE,135,0.9,3.6,62,0.00,,,0.01,WUHU216HW,2013-07-16 20:12:00,
2013-07-16 15:18:00,87.7,74.4,30.12,SSE,158,2.5,2.5,65,0.00,,,0.01,WUHU216HW,2013-07-16 20:18:00,
2013-07-16 15:23:00,85.7,74.4,30.12,ESE,113,3.1,3.1,69,0.03,,,0.04,WUHU216HW,2013-07-16 20:23:00,
2013-07-16 15:28:00,83.2,73.2,30.13,SW,225,2.3,3.1,72,0.03,,,0.04,WUHU216HW,2013-07-16 20:28:00,
2013-07-16 15:33:00,80.5,71.8,30.13,WSW,239,3.7,8.5,75,0.07,,,0.08,WUHU216HW,2013-07-16 20:33:00,
2013-07-16 15:38:00,78.8,71.4,30.13,WSW,248,0.6,8.5,78,0.07,,,0.08,WUHU216HW,2013-07-16 20:38:00,
2013-07-16 15:43:00,78.1,71.1,30.13,NNW,338,1.6,3.4,79,0.07,,,0.08,WUHU216HW,2013-07-16 20:43:00,
2013-07-16 15:48:00,77.6,71.3,30.13,NNE,23,0.4,2.5,81,0.07,,,0.08,WUHU216HW,2013-07-16 20:48:00,
2013-07-16 15:53:00,77.0,70.7,30.12,West,267,1.8,2.5,81,0.07,,,0.08,WUHU216HW,2013-07-16 20:53:00,
2013-07-16 15:58:00,76.5,70.6,30.13,WSW,253,0.8,2.5,82,0.07,,,0.08,WUHU216HW,2013-07-16 20:58:00,
2013-07-16 16:03:00,76.1,70.3,30.14,WNW,293,1.1,2.5,82,0.07,,,0.08,WUHU216HW,2013-07-16 21:03:00,
2013-07-16 16:08:00,76.1,70.7,30.14,WNW,293,0.9,1.1,83,0.07,,,0.08,WUHU216HW,2013-07-16 21:08:00,
2013-07-16 16:13:00,76.0,70.5,30.12,WNW,293,0.2,0.9,83,0.07,,,0.08,WUHU216HW,2013-07-16 21:13:00,
2013-07-16 16:18:00,76.0,70.5,30.12,WNW,293,0.4,0.4,83,0.04,,,0.08,WUHU216HW,2013-07-16 21:18:00,
2013-07-16 16:23:00,76.0,70.8,30.12,WNW,293,0.6,0.7,84,0.04,,,0.08,WUHU216HW,2013-07-16 21:23:00,
2013-07-16 16:28:00,75.8,71.0,30.13,WNW,293,0.4,1.1,85,0.02,,,0.08,WUHU216HW,2013-07-16 21:28:00,
2013-07-16 16:33:00,75.8,71.0,30.13,WNW,293,0.0,1.1,85,0.00,,,0.08,WUHU216HW,2013-07-16 21:33:00,
2013-07-16 16:38:00,75.8,71.0,30.13,WNW,293,0.4,0.4,85,0.00,,,0.08,WUHU216HW,2013-07-16 21:38:00,
2013-07-16 16:43:00,76.0,71.2,30.14,WNW,293,0.4,0.4,85,0.00,,,0.08,WUHU216HW,2013-07-16 21:43:00,
2013-07-16 16:48:00,76.0,71.2,30.14,WNW,293,0.0,0.4,85,0.00,,,0.08,WUHU216HW,2013-07-16 21:48:00,
2013-07-16 16:53:00,76.0,71.2,30.13,WNW,293,0.4,0.4,85,0.00,,,0.08,WUHU216HW,2013-07-16 21:53:00,
2013-07-16 16:58:00,76.1,71.6,30.13,WNW,293,0.0,0.4,86,0.00,,,0.08,WUHU216HW,2013-07-16 21:58:00,
2013-07-16 17:03:00,76.1,71.6,30.13,WNW,293,0.0,0.0,86,0.00,,,0.08,WUHU216HW,2013-07-16 22:03:00,
2013-07-16 17:08:00,76.3,71.8,30.13,WNW,293,0.0,0.0,86,0.00,,,0.08,WUHU216HW,2013-07-16 22:08:00,
2013-07-16 17:13:00,76.5,72.0,30.13,WNW,293,0.3,0.4,86,0.00,,,0.08,WUHU216HW,2013-07-16 22:13:00,
2013-07-16 17:18:00,76.5,72.4,30.13,WNW,293,0.4,0.4,87,0.00,,,0.08,WUHU216HW,2013-07-16 22:18:00,
2013-07-16 17:23:00,76.7,72.5,30.13,WNW,293,0.6,0.7,87,0.00,,,0.08,WUHU216HW,2013-07-16 22:23:00,
2013-07-16 17:28:00,76.9,72.7,30.13,WNW,293,0.2,0.7,87,0.00,,,0.08,WUHU216HW,2013-07-16 22:28:00,
2013-07-16 17:33:00,77.0,72.9,30.14,SSE,158,0.7,0.7,87,0.00,,,0.08,WUHU216HW,2013-07-16 22:33:00,
2013-07-16 17:38:00,77.0,72.9,30.14,SSE,158,0.9,3.6,87,0.00,,,0.08,WUHU216HW,2013-07-16 22:38:00,
2013-07-16 17:43:00,77.2,73.1,30.14,SW,225,0.1,3.6,87,0.00,,,0.08,WUHU216HW,2013-07-16 22:43:00,
2013-07-16 17:48:00,77.2,73.1,30.14,SW,225,0.0,0.4,87,0.00,,,0.08,WUHU216HW,2013-07-16 22:48:00,
2013-07-16 17:53:00,77.4,73.3,30.13,SW,225,0.4,1.1,87,0.00,,,0.08,WUHU216HW,2013-07-16 22:53:00,
2013-07-16 17:58:00,77.4,73.3,30.13,SW,225,0.2,1.1,87,0.00,,,0.08,WUHU216HW,2013-07-16 22:58:00,
2013-07-16 18:03:00,77.6,73.4,30.13,SW,225,0.0,0.4,87,0.00,,,0.08,WUHU216HW,2013-07-16 23:03:00,
2013-07-16 18:08:00,77.6,73.1,30.13,SW,225,0.3,0.4,86,0.00,,,0.08,WUHU216HW,2013-07-16 23:08:00,
2013-07-16 18:13:00,77.6,73.1,30.13,SE,135,0.4,1.1,86,0.00,,,0.08,WUHU216HW,2013-07-16 23:13:00,
2013-07-16 18:18:00,77.6,73.1,30.13,SE,135,0.0,1.1,86,0.00,,,0.08,WUHU216HW,2013-07-16 23:18:00,
2013-07-16 18:23:00,77.6,72.7,30.13,SE,135,0.0,0.9,85,0.00,,,0.08,WUHU216HW,2013-07-16 23:23:00,
2013-07-16 18:28:00,77.6,72.7,30.13,NNE,23,0.2,0.7,85,0.00,,,0.08,WUHU216HW,2013-07-16 23:28:00,
2013-07-16 18:33:00,77.8,72.9,30.13,NNE,23,0.6,0.7,85,0.00,,,0.08,WUHU216HW,2013-07-16 23:33:00,
2013-07-16 18:38:00,77.8,72.9,30.13,NNE,23,0.0,0.7,85,0.00,,,0.08,WUHU216HW,2013-07-16 23:38:00,
2013-07-16 18:43:00,77.9,73.1,30.13,NNE,23,0.0,0.7,85,0.00,,,0.08,WUHU216HW,2013-07-16 23:43:00,
2013-07-16 18:48:00,77.9,73.1,30.13,NNE,23,0.0,0.7,85,0.00,,,0.08,WUHU216HW,2013-07-16 23:48:00,
2013-07-16 18:53:00,77.9,73.1,30.13,ESE,113,1.8,1.8,85,0.00,,,0.08,WUHU216HW,2013-07-16 23:53:00,
2013-07-16 18:58:00,78.1,72.9,30.14,ESE,113,0.2,1.8,84,0.00,,,0.08,WUHU216HW,2013-07-16 23:58:00,
2013-07-16 19:03:00,78.1,72.9,30.13,ESE,113,0.0,0.9,84,0.00,,,0.08,WUHU216HW,2013-07-17 00:03:00,
2013-07-16 19:08:00,78.1,72.9,30.14,ESE,113,0.4,0.4,84,0.00,,,0.08,WUHU216HW,2013-07-17 00:08:00,
2013-07-16 19:13:00,78.1,72.5,30.13,ESE,113,0.7,1.8,83,0.00,,,0.08,WUHU216HW,2013-07-17 00:13:00,
2013-07-16 19:18:00,78.3,72.7,30.14,ESE,113,0.6,1.8,83,0.00,,,0.08,WUHU216HW,2013-07-17 00:18:00,
2013-07-16 19:23:00,78.1,72.5,30.14,ESE,113,0.7,0.9,83,0.00,,,0.08,WUHU216HW,2013-07-17 00:23:00,
2013-07-16 19:28:00,78.1,72.5,30.14,ESE,113,0.0,0.7,83,0.00,,,0.08,WUHU216HW,2013-07-17 00:28:00,
2013-07-16 19:33:00,78.1,72.5,30.14,ESE,113,0.3,0.4,83,0.00,,,0.08,WUHU216HW,2013-07-17 00:33:00,
2013-07-16 19:38:00,78.1,72.5,30.14,ESE,113,0.0,0.4,83,0.00,,,0.08,WUHU216HW,2013-07-17 00:38:00,
2013-07-16 19:43:00,78.1,72.5,30.14,ESE,113,0.2,0.4,83,0.00,,,0.08,WUHU216HW,2013-07-17 00:43:00,
2013-07-16 19:48:00,77.9,72.4,30.14,ESE,113,0.0,0.4,83,0.00,,,0.08,WUHU216HW,2013-07-17 00:48:00,
2013-07-16 19:53:00,77.8,72.5,30.13,ESE,113,0.0,0.4,84,0.00,,,0.08,WUHU216HW,2013-07-17 00:53:00,
2013-07-16 19:58:00,77.8,72.5,30.14,ESE,113,0.0,0.2,84,0.00,,,0.08,WUHU216HW,2013-07-17 00:58:00,
2013-07-16 20:03:00,77.6,72.4,30.14,ESE,113,0.0,0.2,84,0.00,,,0.08,WUHU216HW,2013-07-17 01:03:00,
2013-07-16 20:08:00,77.6,72.7,30.14,ESE,113,1.0,1.3,85,0.00,,,0.08,WUHU216HW,2013-07-17 01:08:00,
2013-07-16 20:13:00,77.6,72.7,30.14,ESE,113,0.0,1.3,85,0.00,,,0.08,WUHU216HW,2013-07-17 01:13:00,
2013-07-16 20:18:00,77.6,72.7,30.13,ESE,113,0.0,0.0,85,0.00,,,0.08,WUHU216HW,2013-07-17 01:18:00,
2013-07-16 20:23:00,77.4,72.5,30.14,ESE,113,0.0,0.4,85,0.00,,,0.08,WUHU216HW,2013-07-17 01:23:00,
2013-07-16 20:28:00,77.4,72.5,30.14,ESE,113,0.0,0.4,85,0.00,,,0.08,WUHU216HW,2013-07-17 01:28:00,
2013-07-16 20:33:00,77.2,72.4,30.14,ESE,113,0.0,0.0,85,0.00,,,0.08,WUHU216HW,2013-07-17 01:33:00,
2013-07-16 20:38:00,77.0,72.2,30.14,ESE,113,0.0,0.0,85,0.00,,,0.08,WUHU216HW,2013-07-17 01:38:00,
2013-07-16 20:43:00,77.0,72.2,30.14,ESE,113,0.0,0.0,85,0.00,,,0.08,WUHU216HW,2013-07-17 01:43:00,
2013-07-16 20:48:00,76.9,72.0,30.14,ESE,113,0.0,0.2,85,0.00,,,0.08,WUHU216HW,2013-07-17 01:48:00,
2013-07-16 20:53:00,76.9,72.0,30.14,ESE,113,0.0,0.2,85,0.00,,,0.08,WUHU216HW,2013-07-17 01:53:00,
2013-07-16 20:58:00,76.7,71.8,30.14,ESE,113,0.1,0.2,85,0.00,,,0.08,WUHU216HW,2013-07-17 01:58:00,
2013-07-16 21:03:00,76.7,71.8,30.14,ESE,113,0.0,0.2,85,0.00,,,0.08,WUHU216HW,2013-07-17 02:03:00,
2013-07-16 21:08:00,76.5,71.6,30.14,SE,135,0.7,0.7,85,0.00,,,0.08,WUHU216HW,2013-07-17 02:08:00,
2013-07-16 21:13:00,76.5,71.6,30.14,SE,135,0.2,0.7,85,0.00,,,0.08,WUHU216HW,2013-07-17 02:13:00,
2013-07-16 21:18:00,76.5,71.6,30.14,SE,135,0.4,0.4,85,0.00,,,0.08,WUHU216HW,2013-07-17 02:18:00,
2013-07-16 21:23:00,76.3,71.5,30.14,ESE,113,0.0,0.7,85,0.00,,,0.08,WUHU216HW,2013-07-17 02:23:00,
2013-07-16 21:28:00,76.3,71.5,30.15,ESE,113,0.0,0.7,85,0.00,,,0.08,WUHU216HW,2013-07-17 02:28:00,
2013-07-16 21:33:00,76.3,71.5,30.15,ESE,113,0.1,0.4,85,0.00,,,0.08,WUHU216HW,2013-07-17 02:33:00,
2013-07-16 21:38:00,76.3,71.5,30.15,SE,135,0.9,0.9,85,0.00,,,0.08,WUHU216HW,2013-07-17 02:38:00,
2013-07-16 21:43:00,76.3,71.5,30.15,SE,135,0.4,0.9,85,0.00,,,0.08,WUHU216HW,2013-07-17 02:43:00,
2013-07-16 21:48:00,76.1,71.3,30.15,ESE,113,0.9,1.3,85,0.00,,,0.08,WUHU216HW,2013-07-17 02:48:00,
2013-07-16 21:53:00,76.1,71.3,30.16,ESE,113,0.0,1.3,85,0.00,,,0.08,WUHU216HW,2013-07-17 02:53:00,
2013-07-16 21:58:00,76.1,71.3,30.16,ESE,113,0.4,1.3,85,0.00,,,0.08,WUHU216HW,2013-07-17 02:58:00,
2013-07-16 22:03:00,76.0,71.2,30.16,ESE,113,0.2,1.3,85,0.00,,,0.08,WUHU216HW,2013-07-17 03:03:00,
2013-07-16 22:08:00,76.0,71.2,30.17,ESE,113,0.0,0.9,85,0.00,,,0.08,WUHU216HW,2013-07-17 03:08:00,
2013-07-16 22:13:00,75.8,71.0,30.17,ESE,113,0.7,0.7,85,0.00,,,0.08,WUHU216HW,2013-07-17 03:13:00,
2013-07-16 22:19:00,75.8,71.0,30.17,ESE,113,0.2,0.7,85,0.00,,,0.08,WUHU216HW,2013-07-17 03:19:00,
2013-07-16 22:23:00,75.6,71.2,30.17,ESE,113,0.0,0.4,86,0.00,,,0.08,WUHU216HW,2013-07-17 03:23:00,
2013-07-16 22:28:00,75.6,71.2,30.17,ESE,113,0.0,0.4,86,0.00,,,0.08,WUHU216HW,2013-07-17 03:28:00,
2013-07-16 22:34:00,75.2,70.8,30.17,ESE,113,0.0,0.4,86,0.00,,,0.08,WUHU216HW,2013-07-17 03:34:00,
2013-07-16 22:39:00,75.2,70.8,30.17,ESE,113,0.0,0.0,86,0.00,,,0.08,WUHU216HW,2013-07-17 03:39:00,
2013-07-16 22:44:00,75.2,70.8,30.17,ESE,113,0.0,0.0,86,0.00,,,0.08,WUHU216HW,2013-07-17 03:44:00,
2013-07-16 22:49:00,75.1,70.7,30.18,ESE,113,0.0,0.0,86,0.00,,,0.08,WUHU216HW,2013-07-17 03:49:00,
2013-07-16 22:54:00,75.1,71.0,30.18,ESE,113,0.0,0.0,87,0.00,,,0.08,WUHU216HW,2013-07-17 03:54:00,
2013-07-16 22:59:00,74.9,70.8,30.18,ESE,113,0.4,0.4,87,0.00,,,0.08,WUHU216HW,2013-07-17 03:59:00,
2013-07-16 23:01:00,74.9,70.8,30.18,ESE,113,0.6,0.7,87,0.00,,,0.08,WUHU216HW,2013-07-17 04:01:00,
2013-07-16 23:02:00,74.9,70.8,30.18,ESE,113,0.4,0.7,87,0.00,,,0.08,WUHU216HW,2013-07-17 04:02:00,
2013-07-16 23:07:00,74.9,70.8,30.18,SE,135,0.6,0.7,87,0.00,,,0.08,WUHU216HW,2013-07-17 04:07:00,
2013-07-16 23:12:00,74.7,70.7,30.18,SE,135,0.0,0.7,87,0.00,,,0.08,WUHU216HW,2013-07-17 04:12:00,
2013-07-16 23:17:00,74.5,70.5,30.18,SE,135,0.4,0.4,87,0.00,,,0.08,WUHU216HW,2013-07-17 04:17:00,
2013-07-16 23:21:00,74.5,70.5,30.18,SE,135,0.8,1.1,87,0.00,,,0.08,WUHU216HW,2013-07-17 04:21:00,
2013-07-16 23:26:00,74.5,70.5,30.18,ESE,113,1.1,1.6,87,0.00,,,0.08,WUHU216HW,2013-07-17 04:26:00,
2013-07-16 23:31:00,74.3,70.6,30.18,ESE,113,0.4,1.6,88,0.00,,,0.08,WUHU216HW,2013-07-17 04:31:00,
2013-07-16 23:36:00,74.3,70.6,30.18,ESE,113,0.9,1.3,88,0.00,,,0.08,WUHU216HW,2013-07-17 04:36:00,
2013-07-16 23:41:00,74.2,70.4,30.18,ESE,113,0.7,1.3,88,0.00,,,0.08,WUHU216HW,2013-07-17 04:41:00,
2013-07-16 23:46:00,74.2,70.4,30.19,ESE,113,0.8,1.3,88,0.00,,,0.08,WUHU216HW,2013-07-17 04:46:00,
2013-07-16 23:51:00,74.2,70.4,30.18,ESE,113,0.0,0.9,88,0.00,,,0.08,WUHU216HW,2013-07-17 04:51:00,
2013-07-16 23:55:00,74.2,70.4,30.18,ESE,113,0.4,0.7,88,0.00,,,0.08,WUHU216HW,2013-07-17 04:55:00,
2013-07-16 23:59:00,74.0,70.2,30.18,ESE,113,0.4,1.1,88,0.00,,,0.08,WUHU216HW,2013-07-17 04:59:00,